This is the latest recevied weather packets stored in our database for station/object KO4LFZ. If no packets are shown the sender has not sent any weather packets the latest 10 day(s).
| Time | Temp. | Humidity | Pressure | Rain* | Wind** | Luminosity | Snow |
|---|---|---|---|---|---|---|---|
| 1777612847 | 12.22° C | 80% | 1015.6 hPa | 0 mm | - | 0 W/m² | - |
| 1777612539 | 12.22° C | 76% | 1015.5 hPa | 0 mm | - | 0 W/m² | - |
| 1777612234 | 12.22° C | 77% | 1015.5 hPa | 0 mm | - | 0 W/m² | - |
| 1777611929 | 12.78° C | 81% | 1015.4 hPa | 0 mm | - | 0 W/m² | - |
| 1777611625 | 12.78° C | 81% | 1015.1 hPa | 0 mm | - | 0 W/m² | - |
| 1777611322 | 12.22° C | 76% | 1015.7 hPa | 0 mm | - | 0 W/m² | - |
| 1777611019 | 12.22° C | 72% | 1015.6 hPa | 0 mm | - | 0 W/m² | - |
| 1777610715 | 12.22° C | 74% | 1015.6 hPa | 0 mm | - | 0 W/m² | - |
| 1777610414 | 12.78° C | 77% | 1015.4 hPa | 0 mm | - | 0 W/m² | - |
| 1777610110 | 12.78° C | 78% | 1015.5 hPa | 0 mm | - | 0 W/m² | - |
| 1777609807 | 13.33° C | 76% | 1015.7 hPa | 0 mm | - | 0 W/m² | - |
| 1777609503 | 13.33° C | 72% | 1015.7 hPa | 0 mm | - | 0 W/m² | - |
| 1777609201 | 13.33° C | 70% | 1015.6 hPa | 0 mm | - | 0 W/m² | - |
| 1777608898 | 12.78° C | 75% | 1015.7 hPa | 0 mm | - | 0 W/m² | - |
| 1777608594 | 12.78° C | 75% | 1015.7 hPa | 0 mm | - | 0 W/m² | - |
| 1777608292 | 12.78° C | 76% | 1015.8 hPa | 0 mm | - | 0 W/m² | - |
| 1777607990 | 12.78° C | 72% | 1016 hPa | 0 mm | - | 0 W/m² | - |
| 1777607685 | 12.78° C | 73% | 1015.8 hPa | 0 mm | - | 0 W/m² | - |
| 1777607382 | 12.78° C | 73% | 1016 hPa | 0 mm | - | 0 W/m² | - |
| 1777607078 | 12.78° C | 73% | 1016.3 hPa | 0 mm | - | 0 W/m² | - |
| 1777606773 | 12.78° C | 71% | 1016 hPa | 0 mm | - | 0 W/m² | - |
| 1777606469 | 12.78° C | 71% | 1016.1 hPa | 0 mm | - | 0 W/m² | - |
| 1777606164 | 12.78° C | 72% | 1015.9 hPa | 0 mm | - | 0 W/m² | - |
| 1777605861 | 12.78° C | 74% | 1015.9 hPa | 0 mm | - | 0 W/m² | - |
| 1777605560 | 13.33° C | 75% | 1016.2 hPa | 0 mm | - | 0 W/m² | - |
* Rain latest hour (hover to see other rain measurements)
** Current wind speed in m/s (hover to see current wind gust speed)